[[{"header":{"parameterUnit":"m.s-1","parameterCategory":1,"la1":30.2991,"la2":30.254,"lo1":-89.0895,"lo2":-89.0444,"dy":0.0017,"dx":0.0017,"nx":28,"ny":28,"refTime":"2024-02-01T09:00:00:Z","depth":0,"parameterNumber":2,"parameterNumberName":"U-component_of_WINDS"},"data":[0,0,0,0,0,0,0,0,0,0,0,0,0,0,0,0,0,0,0,0,0,0,0,0,0,0,0,0,0,0,0,0,0,0,0,0,0,0,0,0,0,0,0,0,0,0,0,0,0,0,0,0,0,0,0,0,0,0,-0.1405,-0.1404,0,-0.128,-0.1278,-0.1277,-0.1208,-0.1208,-0.1208,-0.1208,-0.1077,-0.1074,-0.1071,0,0,0,0,0,0,0,0,0,0,0,0,0,-0.1585,-0.1582,-0.1405,-0.1404,-0.1402,-0.128,-0.1278,-0.1276,-0.1208,-0.1208,-0.1208,-0.1208,-0.1078,-0.1075,-0.1071,0,0,0,0,0,0,0,0,0,0,0,0,0,-0.1488,-0.1581,-0.1405,-0.1353,-0.1347,-0.128,-0.1278,-0.1276,-0.1208,-0.1208,-0.1208,-0.1208,-0.108,-0.1075,-0.107,-0.1044,0,0,-0.1055,-0.1053,0,0,0,0,0,0,0,0,-0.1493,-0.1481,-0.1363,-0.1357,-0.135,-0.1259,-0.1293,-0.1198,-0.1208,-0.1261,-0.1208,-0.1207,-0.1138,-0.1128,-0.1105,-0.1038,-0.1033,-0.1054,-0.1051,-0.1049,-0.1048,0,0,0,0,0,0,0,-0.15,-0.1486,-0.1355,-0.1361,-0.1353,-0.1336,-0.1322,-0.1275,-0.1202,-0.1256,-0.1251,-0.1237,-0.1134,-0.111,-0.1102,-0.1031,-0.1054,-0.105,-0.1047,-0.1045,-0.0936,-0.0937,0,0,0,0,0,0,-0.1516,-0.1492,-0.1359,-0.1352,-0.1423,-0.1333,-0.1317,-0.1289,-0.1203,-0.1189,-0.1238,-0.1235,-0.1119,-0.1107,-0.1097,-0.1061,-0.1049,-0.1045,-0.1042,-0.0936,-0.0937,-0.0937,0,0,0,0,0,0,-0.152,-0.1504,-0.1364,-0.1421,-0.1401,-0.133,-0.1299,-0.1286,-0.1262,-0.1189,-0.1175,-0.1226,-0.1118,-0.1104,-0.1058,-0.1056,-0.1042,-0.1038,-0.0936,-0.0936,-0.0937,-0.099,0,0,0,0,0,0,-0.1525,-0.1506,-0.1496,-0.1421,-0.1399,-0.1328,-0.1298,-0.1284,-0.1254,-0.1248,-0.1174,-0.1162,-0.1117,-0.1066,-0.1053,-0.1049,-0.1034,-0.0936,-0.0936,-0.0937,-0.0988,-0.0992,-0.0996,0,0,0,0,0,-0.1532,-0.1516,-0.1496,-0.148,-0.1384,-0.1328,-0.1316,-0.1265,-0.1254,-0.1243,-0.1196,-0.1164,-0.1058,-0.1062,-0.1047,-0.1041,-0.0936,-0.0936,-0.0937,-0.0987,-0.0991,-0.0995,0,0,0,0,0,0,-0.1592,-0.1505,-0.1482,-0.1441,-0.1393,-0.1317,-0.1302,-0.1271,-0.1225,-0.1222,-0.116,-0.1144,-0.1104,-0.1068,-0.1073,-0.1012,-0.0994,-0.0991,-0.1037,-0.1041,-0.1044,-0.1054,-0.103,0,0,0,0,0,-0.16,-0.1563,-0.1488,-0.1459,-0.1436,-0.1374,-0.1347,-0.1312,-0.1259,-0.1239,-0.1188,-0.1138,-0.1093,-0.1065,-0.1019,-0.0983,-0.0966,-0.0971,-0.0975,-0.0978,-0.0977,-0.0955,-0.0957,-0.0937,-0.0937,-0.0937,0,0,-0.1617,-0.1565,-0.1545,-0.147,-0.1429,-0.1391,-0.1357,-0.1318,-0.1289,-0.1232,-0.1186,-0.1148,-0.1087,-0.1046,-0.1026,-0.1015,-0.0978,-0.0978,-0.0982,-0.0978,-0.0955,-0.0957,-0.0959,-0.0938,-0.0938,-0.0937,0,0,-0.1629,-0.1586,-0.1557,-0.1517,-0.1455,-0.1413,-0.1406,-0.1335,-0.1307,-0.126,-0.1217,-0.1182,-0.1106,-0.1065,-0.1034,-0.1032,-0.1001,-0.1018,-0.1037,-0.1017,-0.1018,-0.1019,-0.1019,-0.1019,-0.1017,-0.1017,-0.1017,0,-0.1658,-0.16,-0.1546,-0.151,-0.1479,-0.1426,-0.1397,-0.136,-0.1286,-0.1265,-0.1254,-0.1159,-0.1114,-0.1063,-0.1063,-0.1039,-0.1029,-0.1027,-0.1022,-0.1023,-0.1023,-0.1022,-0.1022,-0.102,-0.1019,-0.1019,-0.1019,0,-0.1639,-0.1599,-0.1583,-0.1514,-0.1481,-0.1448,-0.139,-0.1362,-0.133,-0.129,-0.1243,-0.1188,-0.1131,-0.1116,-0.1084,-0.106,-0.1056,-0.1034,-0.1015,-0.1028,-0.1026,-0.1025,-0.1023,-0.1023,-0.1022,-0.1021,0,0,-0.1685,-0.1587,-0.1582,-0.1551,-0.1478,-0.1446,-0.1411,-0.1356,-0.1334,-0.1285,-0.1254,-0.1192,-0.1172,-0.1137,-0.11,-0.1082,-0.1084,-0.1063,-0.106,-0.1069,-0.1055,-0.1072,-0.1072,-0.1063,-0.1063,-0.1062,-0.106,0,-0.1687,-0.1622,-0.1574,-0.1527,-0.149,-0.144,-0.141,-0.1362,-0.1323,-0.1286,-0.1242,-0.1199,-0.1176,-0.1155,-0.1135,-0.1088,-0.108,-0.1087,-0.1034,-0.1032,-0.1051,-0.1071,-0.1088,-0.1089,-0.1059,-0.1059,-0.1058,0,-0.168,-0.1634,-0.1585,-0.1517,-0.15,-0.1473,-0.1419,-0.1384,-0.1329,-0.1302,-0.1263,-0.1225,-0.1186,-0.117,-0.1115,-0.1121,-0.1096,-0.107,-0.1069,-0.1062,-0.1047,-0.1065,-0.1088,-0.1088,-0.1056,-0.1057,-0.1057,0,-0.172,-0.1645,-0.1606,-0.158,-0.15,-0.1483,-0.1448,-0.1393,-0.1363,-0.1316,-0.1296,-0.1244,-0.1216,-0.1177,-0.1126,-0.1119,-0.1076,-0.1056,-0.1053,-0.1054,-0.1046,-0.1047,-0.1066,-0.103,-0.103,-0.103,-0.103,0,-0.1728,-0.17,-0.1623,-0.1599,-0.1566,-0.151,-0.1478,-0.144,-0.1391,-0.1358,-0.1311,-0.1282,-0.1216,-0.1178,-0.1138,-0.1099,-0.1086,-0.1063,-0.1053,-0.1068,-0.1071,-0.1051,-0.105,-0.1029,-0.1029,-0.1029,-0.1029,0,-0.1766,-0.1714,-0.1668,-0.1596,-0.1577,-0.1556,-0.1494,-0.1469,-0.1428,-0.1387,-0.1375,-0.131,-0.1263,-0.1208,-0.1143,-0.1116,-0.108,-0.1065,-0.1099,-0.1094,-0.1093,-0.1094,-0.11,-0.1098,-0.1063,-0.1063,-0.1064,0,-0.1775,-0.1752,-0.1678,-0.1654,-0.1621,-0.1581,-0.1551,-0.1495,-0.1465,-0.1401,-0.1383,-0.1333,-0.129,-0.1218,-0.1165,-0.1115,-0.1098,-0.1103,-0.109,-0.1106,-0.1099,-0.1101,-0.1099,-0.1107,-0.1108,-0.1108,-0.1109,0,-0.1796,-0.1772,-0.173,-0.1679,-0.1645,-0.1602,-0.1557,-0.1539,-0.1474,-0.1443,-0.1395,-0.1362,-0.1296,-0.1247,-0.119,-0.1154,-0.1121,-0.1113,-0.111,-0.1125,-0.1146,-0.1135,-0.111,-0.1113,-0.1113,-0.1112,-0.1112,-0.1112,-0.182,-0.1798,-0.1743,-0.1698,-0.1659,-0.1618,-0.1591,-0.1547,-0.1506,-0.1449,-0.1418,-0.1371,-0.1316,-0.1237,-0.1202,-0.1164,-0.1153,-0.1148,-0.1146,-0.1146,-0.1151,-0.1152,-0.1154,-0.1153,-0.1153,-0.1153,-0.1153,0,-0.184,-0.1802,-0.1761,-0.1701,-0.1666,-0.1638,-0.1587,-0.1559,-0.1518,-0.1471,-0.143,-0.1375,-0.1327,-0.127,-0.1219,-0.1199,-0.1183,-0.1188,-0.1189,-0.1181,-0.1164,-0.1172,-0.1202,-0.1202,-0.1202,-0.1202,-0.1202,-0.1202,-0.1846,-0.1807,-0.1776,-0.1717,-0.1679,-0.1633,-0.1606,-0.1569,-0.153,-0.1472,-0.1432,-0.1396,-0.1344,-0.1288,-0.1243,-0.1228,-0.1211,-0.1221,-0.1201,-0.1186,-0.1182,-0.1178,-0.1186,-0.1218,-0.1218,-0.1221,-0.1221,-0.1222]},{"header":{"parameterUnit":"m.s-1","parameterCategory":1,"la1":30.2991,"la2":30.254,"lo1":-89.0895,"lo2":-89.0444,"dy":0.0017,"dx":0.0017,"nx":28,"ny":28,"refTime":"2024-02-01T09:00:00:Z","depth":0,"parameterNumber":3,"parameterNumberName":"V-component_of_WINDS"},"data":[0,0,0,0,0,0,0,0,0,0,0,0,0,0,0,0,0,0,0,0,0,0,0,0,0,0,0,0,0,0,0,0,0,0,0,0,0,0,0,0,0,0,0,0,0,0,0,0,0,0,0,0,0,0,0,0,0,0,1.1797,1.1796,0,1.1753,1.1753,1.1752,1.1713,1.1713,1.1712,1.1712,1.1664,1.1663,1.1663,0,0,0,0,0,0,0,0,0,0,0,0,0,1.1844,1.1844,1.1797,1.1796,1.1796,1.1753,1.1753,1.1752,1.1713,1.1713,1.1712,1.1711,1.1665,1.1664,1.1662,0,0,0,0,0,0,0,0,0,0,0,0,0,1.1815,1.1844,1.1797,1.1771,1.1769,1.1753,1.1753,1.1752,1.1713,1.1713,1.1712,1.1711,1.1665,1.1664,1.1662,1.1668,0,0,1.1659,1.1658,0,0,0,0,0,0,0,0,1.1816,1.1813,1.1776,1.1773,1.177,1.1738,1.1752,1.1724,1.1713,1.1734,1.1712,1.1711,1.1689,1.1686,1.1679,1.1666,1.1664,1.1658,1.1658,1.1657,1.1657,0,0,0,0,0,0,0,1.1818,1.1814,1.1779,1.1775,1.1772,1.1761,1.1756,1.1746,1.1716,1.1732,1.1729,1.1725,1.1687,1.168,1.1678,1.1663,1.1658,1.1657,1.1657,1.1656,1.1653,1.1653,0,0,0,0,0,0,1.1825,1.1816,1.1781,1.1778,1.1792,1.1761,1.1755,1.1749,1.1716,1.171,1.1725,1.1723,1.1683,1.1679,1.1676,1.1681,1.1657,1.1656,1.1655,1.1652,1.1653,1.1654,0,0,0,0,0,0,1.1826,1.1822,1.1783,1.1796,1.1791,1.1761,1.1754,1.1748,1.1741,1.1711,1.1705,1.1724,1.1682,1.1678,1.1671,1.1678,1.1655,1.1654,1.1651,1.1652,1.1653,1.169,0,0,0,0,0,0,1.1827,1.1823,1.1825,1.1797,1.179,1.1779,1.1754,1.1748,1.1739,1.1736,1.1708,1.1702,1.1681,1.1673,1.1669,1.1676,1.1653,1.165,1.1652,1.1653,1.1688,1.1693,1.1696,0,0,0,0,0,1.1829,1.1836,1.1825,1.1821,1.1793,1.1779,1.1775,1.1752,1.174,1.1742,1.1723,1.1703,1.1678,1.1672,1.1668,1.1675,1.165,1.1651,1.1653,1.1687,1.1692,1.1696,0,0,0,0,0,0,1.1865,1.1832,1.182,1.1818,1.1802,1.1773,1.1775,1.1758,1.1744,1.1741,1.1711,1.1705,1.1702,1.1687,1.1682,1.1679,1.1661,1.1662,1.1688,1.1693,1.1697,1.17,1.1652,0,0,0,0,0,1.1873,1.1866,1.1837,1.1839,1.1831,1.1805,1.1798,1.1781,1.1763,1.1756,1.1735,1.1718,1.1706,1.1699,1.1686,1.1686,1.1679,1.1689,1.1692,1.1696,1.1697,1.1696,1.17,1.1659,1.1659,1.1659,0,0,1.1889,1.187,1.1867,1.1845,1.1831,1.1824,1.1799,1.1792,1.1786,1.1754,1.1747,1.1731,1.171,1.1707,1.1704,1.1694,1.1707,1.1698,1.1701,1.17,1.1698,1.1702,1.1705,1.166,1.1659,1.1659,0,0,1.1914,1.19,1.1899,1.1886,1.1865,1.1847,1.1847,1.182,1.1809,1.1802,1.1778,1.177,1.175,1.1735,1.1726,1.1746,1.1728,1.1743,1.1763,1.1763,1.1766,1.1769,1.1776,1.1779,1.1744,1.1744,1.1744,0,1.1937,1.1926,1.1901,1.1896,1.1887,1.1859,1.1858,1.1846,1.1821,1.1815,1.1805,1.178,1.1763,1.1757,1.1762,1.1755,1.1753,1.1746,1.1768,1.177,1.1772,1.1779,1.1782,1.1746,1.1746,1.1746,1.1745,0,1.1954,1.1947,1.1949,1.1927,1.1918,1.1916,1.189,1.1884,1.1868,1.1851,1.1844,1.1823,1.1806,1.1803,1.1787,1.1794,1.1788,1.1774,1.1755,1.1779,1.1785,1.1787,1.1749,1.1748,1.1748,1.1747,0,0,1.2,1.1966,1.1967,1.1957,1.1932,1.1926,1.1921,1.1906,1.1901,1.1885,1.1881,1.1865,1.1851,1.184,1.1822,1.1821,1.184,1.1806,1.1805,1.1813,1.1846,1.1858,1.1861,1.1827,1.1828,1.1828,1.1848,0,1.2022,1.2014,1.1992,1.199,1.1983,1.1956,1.1952,1.1936,1.1921,1.1912,1.1893,1.1883,1.1865,1.1859,1.1857,1.1838,1.1846,1.1836,1.1822,1.1822,1.1829,1.1864,1.1876,1.1896,1.185,1.1851,1.1851,0,1.2045,1.2033,1.2031,1.2007,1.2003,1.2,1.1984,1.1976,1.1957,1.1945,1.1934,1.1914,1.1907,1.1891,1.1881,1.1875,1.1868,1.1858,1.1858,1.1856,1.1838,1.1863,1.1902,1.1905,1.1854,1.1854,1.1854,0,1.208,1.2062,1.2058,1.2051,1.2022,1.2021,1.2009,1.199,1.1982,1.1967,1.1962,1.1947,1.1938,1.1927,1.1903,1.1893,1.1896,1.1878,1.1886,1.1887,1.1888,1.1888,1.1926,1.1883,1.1883,1.1883,1.1883,0,1.2106,1.2106,1.2074,1.2072,1.2071,1.2045,1.2045,1.203,1.2013,1.2007,1.1982,1.1977,1.1947,1.1938,1.1919,1.1914,1.191,1.19,1.1896,1.1903,1.1904,1.1898,1.1896,1.1884,1.1884,1.1884,1.1884,0,1.2144,1.2123,1.2117,1.2091,1.2085,1.2085,1.2063,1.2059,1.2042,1.2035,1.2032,1.2005,1.1993,1.1969,1.195,1.1938,1.1937,1.1928,1.1944,1.1941,1.1951,1.195,1.1986,1.1989,1.1945,1.1945,1.1946,0,1.2162,1.2162,1.2136,1.2131,1.2121,1.2112,1.2105,1.2079,1.2072,1.2051,1.205,1.2037,1.2025,1.2007,1.1985,1.1971,1.1962,1.1975,1.1959,1.1967,1.1962,1.1962,1.1962,1.1979,1.1979,1.198,1.198,0,1.2197,1.2187,1.2177,1.2164,1.2155,1.2143,1.213,1.2127,1.2098,1.2091,1.208,1.2071,1.2052,1.2039,1.2021,1.2008,1.1989,1.1986,1.1987,1.1994,1.2003,1.1999,1.1954,1.1985,1.1984,1.1984,1.1984,1.1984,1.2226,1.2224,1.2206,1.2196,1.2184,1.2172,1.2168,1.2151,1.2141,1.2125,1.2111,1.21,1.2081,1.2056,1.2044,1.2035,1.2026,1.2027,1.2028,1.2029,1.2032,1.2005,1.2032,1.2031,1.2031,1.2031,1.2031,0,1.2259,1.2247,1.2238,1.2221,1.2213,1.2197,1.2181,1.2176,1.2167,1.2152,1.2141,1.2128,1.2115,1.2093,1.2078,1.2075,1.2066,1.2072,1.2072,1.2069,1.2041,1.2041,1.2079,1.2079,1.2079,1.2079,1.2079,1.2079,1.2276,1.2273,1.226,1.2251,1.2237,1.2228,1.2221,1.221,1.2197,1.2184,1.2174,1.216,1.2141,1.2125,1.2113,1.2106,1.2102,1.2111,1.2102,1.2076,1.2071,1.2067,1.2067,1.211,1.211,1.213,1.2131,1.2131]}]]